This demonstration page uses our WeatherBlox Daily Observations layout. Learn more.

Left ArrowRight Arrow

Hourly Observations for January 28, 2016

Temp ( °F °C ) Dew Point ( °F °C ) Humidity (%) Winds ( mph kmh ) Pressure ( in mb ) Visibility ( mi km ) Precip ( " mm )
12:59 am 00:59 Clear 38 3.3 28 -2.2 68 68 NE 6 9 30.14 1021 10 16 0.00 0.00
1:59 am 01:59 Mostly Cloudy 39 3.9 28 -2.2 65 65 ENE 7 11 30.13 1020 10 16 0.00 0.00
2:59 am 02:59 Cloudy 39 3.9 30 -1.1 70 70 ENE 6 9 30.11 1020 10 16 0.00 0.00
3:59 am 03:59 Mostly Cloudy 39 3.9 30 -1.1 70 70 NE 6 9 30.07 1018 10 16 0.00 0.00
4:59 am 04:59 Mostly Cloudy 39 3.9 31 -0.6 73 73 NE 6 9 30.06 1018 10 16 0.00 0.00
5:59 am 05:59 Mostly Cloudy 38 3.3 31 -0.6 76 76 NE 3 6 30.05 1018 9 14 0.00 0.00
6:59 am 06:59 Mostly Cloudy 36 2.2 31 -0.6 82 82 NE 3 6 30.03 1017 8 13 0.00 0.00
7:59 am 07:59 Mostly Cloudy 38 3.3 32 0 79 79 NE 5 7 30.03 1017 10 16 0.00 0.00
8:59 am 08:59 Mostly Cloudy 41 5 33 0.6 73 73 ENE 6 9 30.02 1017 8 13 0.00 0.00
9:59 am 09:59 Mostly Cloudy 43 6.1 34 1.1 71 71 N 7 11 30.02 1017 9 14 0.00 0.00
10:59 am 10:59 Mostly Cloudy 43 6.1 34 1.1 71 71 NNE 8 13 30.00 1016 9 14 0.00 0.00
11:59 am 11:59 Mostly Cloudy 44 6.7 34 1.1 68 68 N 7 11 29.97 1015 9 14 0.00 0.00
12:59 pm 12:59 Cloudy 46 7.8 34 1.1 63 63 NNE 5 7 29.93 1014 10 16 0.00 0.00
1:59 pm 13:59 Cloudy 45 7.2 34 1.1 66 66 NNE 3 6 29.90 1012 9 14 0.00 0.00
2:59 pm 14:59 Cloudy 46 7.8 34 1.1 63 63 NNE 3 6 29.86 1011 9 14 0.00 0.00
3:59 pm 15:59 Cloudy 45 7.2 35 1.7 68 68 NNW 6 9 29.82 1010 8 13 0.00 0.00
4:59 pm 16:59 Cloudy 42 5.6 33 0.6 71 71 N 5 7 29.81 1009 8 13 0.00 0.00
5:59 pm 17:59 Cloudy 43 6.1 35 1.7 74 74 Calm 29.80 1009 9 14 0.00 0.00
6:59 pm 18:59 Cloudy 43 6.1 36 2.2 76 76 Calm 29.80 1009 9 14 0.00 0.00
7:59 pm 19:59 Cloudy 42 5.6 36 2.2 79 79 Calm 29.78 1008 8 13 0.00 0.00
8:59 pm 20:59 Cloudy 42 5.6 36 2.2 79 79 Calm 29.77 1008 8 13 0.00 0.00
9:59 pm 21:59 Mostly Cloudy 42 5.6 35 1.7 76 76 Calm 29.75 1008 8 13 0.00 0.00
10:59 pm 22:59 Cloudy 41 5 36 2.2 82 82 WNW 3 6 29.72 1007 8 13 0.00 0.00
11:59 pm 23:59 Mostly Cloudy 41 5 33 0.6 73 73 W 5 7 29.69 1006 9 14 0.00 0.00

Powered by AerisWeather